• En España
  • Lista de países
  • Para 7 días
  • Temperatura del agua
  • Mapa Satelital
  • El tiempo en el mapa
  • Informadores
  • user-avatar
    Iniciar sesión

    Tiempo cada hora Kaprun

    Hoy, 23 Junio, Sábado

    Tiempo Temperatura Precipitaciones Viento Presión Humedad
    00:00 -1°C° 0,1 mm 2 mps 600 mmHg 92%
    01:00 -1°C° 0 mm 2 mps 600 mmHg 92%
    02:00 -1°C° 0 mm 2 mps 600 mmHg 92%
    03:00 -2°C° 0 mm 2 mps 600 mmHg 92%
    04:00 -2°C° 0 mm 2 mps 600 mmHg 92%
    05:00 -1°C° 0 mm 2 mps 600 mmHg 86%
    06:00 +2°C° 0 mm 2 mps 600 mmHg 80%
    07:00 +3°C° 0 mm 2 mps 601 mmHg 74%
    08:00 +5°C° 0 mm 2 mps 601 mmHg 65%
    09:00 +7°C° 0 mm 2 mps 602 mmHg 55%
    10:00 +8°C° 0 mm 2 mps 602 mmHg 45%
    11:00 +9°C° 0 mm 2 mps 603 mmHg 44%
    12:00 +10°C° 0 mm 3 mps 603 mmHg 43%
    13:00 +10°C° 0 mm 3 mps 603 mmHg 41%
    14:00 +10°C° 0 mm 3 mps 602 mmHg 45%
    15:00 +10°C° 0 mm 3 mps 602 mmHg 49%
    16:00 +9°C° 0 mm 3 mps 602 mmHg 53%
    17:00 +8°C° 0,2 mm 3 mps 601 mmHg 62%
    18:00 +7°C° 0,2 mm 2 mps 601 mmHg 71%
    19:00 +6°C° 0,2 mm 2 mps 600 mmHg 79%
    20:00 +5°C° 0,2 mm 2 mps 600 mmHg 85%
    21:00 +4°C° 0,2 mm 2 mps 600 mmHg 90%
    22:00 +2°C° 0,2 mm 2 mps 600 mmHg 95%
    23:00 +3°C° 0,5 mm 1 mps 600 mmHg 95%

    Mañana, 24 Junio, Domingo

    Tiempo Temperatura Precipitaciones Viento Presión Humedad
    00:00 +3°C° 0,5 mm 1 mps 600 mmHg 96%
    01:00 +3°C° 0,5 mm 1 mps 600 mmHg 96%
    02:00 +3°C° 0,3 mm 1 mps 600 mmHg 96%
    03:00 +3°C° 0,3 mm 1 mps 599 mmHg 96%
    04:00 +3°C° 0,3 mm 1 mps 599 mmHg 97%
    05:00 +3°C° 0,1 mm 1 mps 599 mmHg 94%
    06:00 +4°C° 0,1 mm 1 mps 599 mmHg 90%
    07:00 +5°C° 0,1 mm 1 mps 600 mmHg 87%
    08:00 +6°C° 0 mm 1 mps 600 mmHg 80%
    09:00 +8°C° 0 mm 1 mps 601 mmHg 73%
    10:00 +8°C° 0 mm 2 mps 601 mmHg 66%
    11:00 +8°C° 0,3 mm 2 mps 601 mmHg 67%
    12:00 +9°C° 0,3 mm 2 mps 601 mmHg 67%
    13:00 +9°C° 0,3 mm 2 mps 601 mmHg 68%
    14:00 +8°C° 0,7 mm 2 mps 601 mmHg 72%
    15:00 +8°C° 0,7 mm 2 mps 600 mmHg 76%
    16:00 +7°C° 0,7 mm 2 mps 600 mmHg 81%
    17:00 +7°C° 0,5 mm 2 mps 600 mmHg 85%
    18:00 +6°C° 0,5 mm 2 mps 599 mmHg 89%
    19:00 +5°C° 0,5 mm 2 mps 599 mmHg 92%
    20:00 +5°C° 0,2 mm 2 mps 599 mmHg 94%
    21:00 +5°C° 0,2 mm 1 mps 599 mmHg 96%
    22:00 +4°C° 0,2 mm 1 mps 599 mmHg 97%
    23:00 +3°C° 0 mm 2 mps 598 mmHg 97%

    Pasado mañana, 25 Junio, Lunes

    Tiempo Temperatura Precipitaciones Viento Presión Humedad
    00:00 +2°C° 0 mm 2 mps 598 mmHg 96%
    01:00 +2°C° 0 mm 2 mps 598 mmHg 96%
    02:00 +1°C° 0,1 mm 2 mps 598 mmHg 96%
    03:00 +1°C° 0,1 mm 2 mps 598 mmHg 96%
    04:00 +2°C° 0,1 mm 1 mps 598 mmHg 96%
    05:00 +2°C° 0,7 mm 2 mps 598 mmHg 95%
    06:00 +3°C° 0,7 mm 2 mps 598 mmHg 94%
    07:00 +3°C° 0,7 mm 2 mps 599 mmHg 93%
    08:00 +4°C° 0,8 mm 2 mps 599 mmHg 91%
    09:00 +4°C° 0,8 mm 2 mps 599 mmHg 90%
    10:00 +5°C° 0,8 mm 2 mps 600 mmHg 88%
    11:00 +6°C° 0,3 mm 2 mps 600 mmHg 82%
    12:00 +8°C° 0,3 mm 2 mps 601 mmHg 76%
    13:00 +9°C° 0,3 mm 2 mps 601 mmHg 70%
    14:00 +9°C° 0,3 mm 2 mps 601 mmHg 68%
    15:00 +10°C° 0,3 mm 2 mps 601 mmHg 66%
    16:00 +10°C° 0,3 mm 3 mps 601 mmHg 64%
    17:00 +9°C° 0,2 mm 2 mps 601 mmHg 70%
    18:00 +8°C° 0,2 mm 2 mps 601 mmHg 76%
    19:00 +7°C° 0,2 mm 2 mps 601 mmHg 82%
    20:00 +6°C° 0,1 mm 2 mps 600 mmHg 87%
    21:00 +4°C° 0,1 mm 2 mps 600 mmHg 91%
    22:00 +2°C° 0,1 mm 2 mps 600 mmHg 96%
    23:00 +2°C° 0 mm 2 mps 600 mmHg 96%

    26 Junio, Martes

    Tiempo Temperatura Precipitaciones Viento Presión Humedad
    00:00 +2°C° 0 mm 2 mps 600 mmHg 96%
    01:00 +1°C° 0 mm 2 mps 599 mmHg 95%
    02:00 +1°C° 0 mm 2 mps 599 mmHg 95%
    03:00 +1°C° 0 mm 2 mps 599 mmHg 95%
    04:00 +1°C° 0 mm 2 mps 599 mmHg 95%
    05:00 +2°C° 0 mm 2 mps 600 mmHg 90%
    06:00 +4°C° 0 mm 2 mps 600 mmHg 84%
    07:00 +6°C° 0 mm 2 mps 601 mmHg 79%
    08:00 +8°C° 0 mm 2 mps 602 mmHg 71%
    09:00 +9°C° 0 mm 2 mps 602 mmHg 64%
    10:00 +12°C° 0 mm 2 mps 603 mmHg 56%
    11:00 +13°C° 0 mm 2 mps 603 mmHg 53%
    12:00 +13°C° 0 mm 2 mps 603 mmHg 51%
    13:00 +14°C° 0 mm 2 mps 603 mmHg 48%
    14:00 +14°C° 0,1 mm 2 mps 603 mmHg 50%
    15:00 +14°C° 0,1 mm 2 mps 603 mmHg 53%
    16:00 +14°C° 0,1 mm 2 mps 603 mmHg 55%
    17:00 +13°C° 0,1 mm 2 mps 603 mmHg 64%
    18:00 +10°C° 0,1 mm 2 mps 602 mmHg 72%
    19:00 +9°C° 0,1 mm 2 mps 602 mmHg 80%
    20:00 +8°C° 0 mm 2 mps 602 mmHg 86%
    21:00 +7°C° 0 mm 1 mps 601 mmHg 91%
    22:00 +5°C° 0 mm 1 mps 601 mmHg 96%
    23:00 +5°C° 0 mm 1 mps 601 mmHg 96%

    27 Junio, Miércoles

    Tiempo Temperatura Precipitaciones Viento Presión Humedad
    00:00 +5°C° 0 mm 1 mps 600 mmHg 96%
    01:00 +4°C° 0 mm 1 mps 600 mmHg 96%
    02:00 +4°C° 0 mm 1 mps 600 mmHg 96%
    03:00 +3°C° 0 mm 1 mps 600 mmHg 95%
    04:00 +3°C° 0 mm 1 mps 599 mmHg 95%
    05:00 +5°C° 0 mm 1 mps 600 mmHg 87%
    06:00 +7°C° 0 mm 1 mps 601 mmHg 79%
    07:00 +9°C° 0 mm 1 mps 602 mmHg 71%
    08:00 +11°C° 0 mm 1 mps 603 mmHg 62%
    09:00 +12°C° 0 mm 2 mps 603 mmHg 53%
    10:00 +14°C° 0 mm 2 mps 604 mmHg 44%
    11:00 +15°C° 0 mm 2 mps 604 mmHg 43%
    12:00 +16°C° 0 mm 2 mps 604 mmHg 41%
    13:00 +17°C° 0 mm 3 mps 604 mmHg 40%
    14:00 +16°C° 0 mm 3 mps 604 mmHg 42%
    15:00 +16°C° 0 mm 3 mps 603 mmHg 45%
    16:00 +16°C° 0 mm 3 mps 603 mmHg 47%
    17:00 +14°C° 0 mm 3 mps 603 mmHg 56%
    18:00 +13°C° 0 mm 2 mps 602 mmHg 65%
    19:00 +12°C° 0 mm 2 mps 602 mmHg 75%
    20:00 +9°C° 0 mm 2 mps 601 mmHg 81%
    21:00 +7°C° 0 mm 2 mps 600 mmHg 88%
    22:00 +6°C° 0 mm 1 mps 600 mmHg 95%
    23:00 +5°C° 0 mm 1 mps 599 mmHg 94%

    28 Junio, Jueves

    Tiempo Temperatura Precipitaciones Viento Presión Humedad
    00:00 +5°C° 0 mm 1 mps 599 mmHg 94%
    01:00 +5°C° 0 mm 1 mps 598 mmHg 93%
    02:00 +4°C° 0 mm 1 mps 598 mmHg 91%
    03:00 +4°C° 0 mm 1 mps 598 mmHg 90%
    04:00 +3°C° 0 mm 2 mps 597 mmHg 89%
    05:00 +5°C° 0 mm 2 mps 598 mmHg 83%
    06:00 +6°C° 0 mm 2 mps 599 mmHg 78%
    07:00 +8°C° 0 mm 2 mps 600 mmHg 72%
    08:00 +10°C° 0 mm 2 mps 600 mmHg 65%
    09:00 +12°C° 0 mm 2 mps 600 mmHg 58%
    10:00 +14°C° 0 mm 2 mps 601 mmHg 50%
    11:00 +14°C° 0,1 mm 2 mps 601 mmHg 50%
    12:00 +15°C° 0,1 mm 2 mps 600 mmHg 49%
    13:00 +14°C° 0,1 mm 3 mps 600 mmHg 48%
    14:00 +13°C° 0,6 mm 3 mps 600 mmHg 55%
    15:00 +12°C° 0,6 mm 3 mps 599 mmHg 62%
    16:00 +12°C° 0,6 mm 3 mps 599 mmHg 68%
    17:00 +10°C° 1 mm 2 mps 598 mmHg 76%
    18:00 +9°C° 1 mm 2 mps 598 mmHg 83%
    19:00 +9°C° 1 mm 1 mps 597 mmHg 90%
    20:00 +7°C° 0,3 mm 1 mps 597 mmHg 92%
    21:00 +6°C° 0,3 mm 1 mps 596 mmHg 94%
    22:00 +5°C° 0,3 mm 1 mps 596 mmHg 95%
    23:00 +4°C° 0 mm 1 mps 596 mmHg 95%
    Mostrar más